• Join FlightAware (Why Join?)
  • Login
  • US Flag 
03:37AM EST


 

Airport Tracker/Info


-or-


 

Live Flight TrackerFlight Track Log ✈ CHQ4740 ✈ 31-Mar-2014 ✈ KCLT - KCLE

Flight Track Log - Related Links

Times and Time Zones

All times are in EDT time to prevent confusion due to time zone crossing. See the CHQ4740 flight status page for this flight to view local times or setup timezone preferences in your user account.

Time Position Orientation Groundspeed Altitude Reporting Facility
EDT Latitude Longitude Course Direction KTS MPH feet Rate Location/Type
05:54PM 35.1144 -80.9664 190° South 254 292 4,800  Level Atlanta Center
05:55PM 35.0906 -81.0156 239° Southwest 278 320 7,000 2,792 Climbing Atlanta Center
05:56PM 35.1031 -81.0989 280° West 279 321 9,500 2,450 Climbing Atlanta Center
05:57PM 35.1700 -81.1017 358° North 189 217 11,900 2,050 Climbing Atlanta Center
05:58PM 35.2422 -81.0686 20° North 207 238 13,600 1,650 Climbing Atlanta Center
05:59PM 35.3253 -81.0606 North 251 289 15,200 1,550 Climbing Atlanta Center
06:00PM 35.4114 -81.0778 351° North 287 330 16,700 1,450 Climbing Atlanta Center
06:01PM 35.4994 -81.0975 350° North 306 352 18,100 1,500 Climbing Atlanta Center
06:02PM 35.5917 -81.1147 351° North 320 368 19,700 1,550 Climbing Atlanta Center
06:03PM 35.6881 -81.1367 350° North 337 388 21,200 1,500 Climbing Atlanta Center
06:04PM 35.7825 -81.1617 348° North 343 395 22,700 1,500 Climbing Atlanta Center
06:05PM 35.8750 -81.1839 349° North 343 395 24,200 1,500 Climbing Atlanta Center
06:06PM 35.9714 -81.2061 349° North 343 395 25,700 1,500 Climbing Atlanta Center
06:07PM 36.0678 -81.2286 349° North 343 395 27,200 1,150 Climbing Atlanta Center
06:08PM 36.1622 -81.2508 349° North 343 395 28,000 400 Climbing Atlanta Center
06:09PM 36.2669 -81.2731 350° North 358 412 28,000  Level Atlanta Center
06:10PM 36.3761 -81.3003 349° North 378 435 28,000  Level Atlanta Center
06:12PM 36.6417 -81.3597 350° North 427 491 28,000  Level Indianapolis Center
06:13PM 36.7822 -81.3936 349° North 433 498 28,000  Level Indianapolis Center
06:14PM 36.8983 -81.4203 350° North 434 499 28,000  Level Indianapolis Center
06:15PM 37.0269 -81.4506 349° North 434 499 28,000  Level Indianapolis Center
06:16PM 37.1453 -81.4794 349° North 435 501 28,000  Level Indianapolis Center
06:18PM 37.2686 -81.5072 350° North 440 506 28,000  Level Indianapolis Center
06:19PM 37.3894 -81.5378 349° North 442 509 28,000  Level Indianapolis Center
06:20PM 37.5317 -81.5714 349° North 442 509 28,000  Level Indianapolis Center
06:21PM 37.6531 -81.6000 349° North 443 510 28,000  Level Indianapolis Center
06:22PM 37.7747 -81.6294 349° North 443 510 28,000  Level Indianapolis Center
06:23PM 37.9039 -81.6617 349° North 443 510 28,000  Level Indianapolis Center
06:24PM 38.0239 -81.6892 350° North 441 507 28,000  Level Indianapolis Center
06:25PM 38.1444 -81.7192 349° North 441 507 28,000  Level Indianapolis Center
06:26PM 38.2650 -81.7483 349° North 441 507 28,000  Level Indianapolis Center
06:27PM 38.3853 -81.7764 350° North 440 506 28,000  Level Indianapolis Center
06:28PM 38.5083 -81.7956 353° North 440 506 28,000  Level Indianapolis Center
06:29PM 38.6561 -81.8203 353° North 440 506 28,000  Level Indianapolis Center
06:30PM 38.7797 -81.8417 352° North 440 506 28,000  Level Indianapolis Center
06:31PM 38.9017 -81.8606 353° North 440 506 28,000  Level Indianapolis Center
06:32PM 39.0222 -81.8811 352° North 437 503 28,000  Level Indianapolis Center
06:33PM 39.1439 -81.9011 353° North 436 502 28,000  Level Indianapolis Center
06:34PM 39.2639 -81.9214 353° North 436 502 28,000  Level Indianapolis Center
06:35PM 39.3828 -81.9419 352° North 434 499 28,000  Level Indianapolis Center
06:36PM 39.5022 -81.9611 353° North 433 498 28,000 -629 Level Indianapolis Center
06:37PM 39.6458 -81.9861 352° North 433 498 26,700 -1,306 Descending Indianapolis Center
06:38PM 39.7544 -82.0039 353° North 427 491 25,300 -1,355 Descending Indianapolis Center
06:39PM 39.8697 -82.0247 352° North 426 490 23,900 -1,403 Descending Indianapolis Center
06:40PM 39.9839 -82.0444 352° North 419 482 22,400 -1,548 Descending Indianapolis Center
06:41PM 40.1142 -82.0658 353° North 399 459 20,700 -1,548 Descending Indianapolis Center
06:42PM 40.2233 -82.0856 352° North 398 458 19,200 -1,403 Descending Indianapolis Center
06:43PM 40.3322 -82.1047 352° North 398 458 17,800 -1,306 Descending Indianapolis Center
06:44PM 40.4442 -82.1186 355° North 400 460 16,500 -1,440 Descending Indianapolis Center
06:45PM 40.5564 -82.0314 31° Northeast 398 458 14,800 -1,536 Descending Indianapolis Center
06:46PM 40.6400 -81.9464 38° Northeast 382 440 13,300 -1,448 Descending Indianapolis Center
06:47PM 40.7194 -81.8689 36° Northeast 387 445 12,000 -1,308 Descending Cleveland Center
06:48PM 40.7411 -81.8453 40° Northeast 388 447 11,600 -1,364 Descending Cleveland Center
06:48PM 40.8072 -81.7836 35° Northeast 364 419 10,500 -1,548 Descending Cleveland Center
06:49PM 40.8361 -81.7519 40° Northeast 365 420 10,000 -492 Descending Cleveland Center
06:50PM 40.8958 -81.7561 357° North 352 405 10,000  Level Cleveland Center
06:50PM 40.9289 -81.7756 336° Northwest 354 407 10,000 -197 Level Cleveland Center
06:51PM 40.9831 -81.8119 333° Northwest 312 359 9,800 -677 Descending Cleveland Center
06:51PM 41.0058 -81.8244 338° Northwest 305 351 9,300 -1,273 Descending Cleveland Center
06:52PM 41.0583 -81.8600 333° Northwest 267 307 8,400 -1,258 Descending Cleveland Center
06:52PM 41.0761 -81.8700 337° Northwest 283 326 8,000 -1,527 Descending Cleveland Center
06:53PM 41.1217 -81.9036 331° Northwest 273 314 7,000 -1,452 Descending Cleveland Center
06:53PM 41.1444 -81.9178 335° Northwest 278 320 6,500 -1,455 Descending Cleveland Center
06:54PM 41.1925 -81.9542 330° Northwest 267 307 5,400 -1,452 Descending Cleveland Center
06:54PM 41.2100 -81.9664 332° Northwest 270 311 5,000 -1,377 Descending Cleveland Center
06:55PM 41.2589 -81.9844 344° North 259 298 4,000 -1,065 Descending Cleveland Center
06:55PM 41.2800 -81.9817 North 262 302 3,900 -984 Descending Cleveland Center
06:56PM 41.3233 -81.9700 11° North 227 261 3,000 -1,258 Descending Cleveland Center
06:56PM 41.3425 -81.9633 15° North 238 274 2,600 -1,100 Descending Cleveland Center
06:57PM 41.3672 -81.9272 48° Northeast 164 189 1,900 -968 Descending Cleveland Center
06:57PM 41.3739 -81.9147 55° Northeast 185 213 1,600 -787 Descending Cleveland Center
06:58PM 41.3922 -81.8839 52° Northeast 138 159 1,100 -774 Descending Cleveland Center
06:58PM 41.4033 -81.8675 48° Northeast 153 176 800 -692 Descending Cleveland Center